Regional Weather Roundup
Issued by NWS

Home | Current Version | Previous Version | Graphics & Text | Print | Product List | Glossary On
Versions: 1 2 3 4 5 6 7 8 9 10 11 12 13 14 15 16 17 18 19 20 21 22 23 24 25 26 27 28 29 30 31 32 33 34 35 36 37 38 39 40 41 42 43 44 45 46 47 48 49 50
000
ASUS43 KMKX 281100
RWRWI

WISCONSIN REGIONAL WEATHER ROUNDUP
NATIONAL WEATHER SERVICE MILWAUKEE/SULLIVAN WI
500 AM CST SUN DEC 28 2014

NOTE: "FAIR" INDICATES FEW OR NO CLOUDS BELOW 12,000 FEET WITH NO
SIGNIFICANT WEATHER AND/OR OBSTRUCTIONS TO VISIBILITY.

WIZ001-002-006>008-014>016-023>028-281200-
NORTHWEST WISCONSIN

CITY           SKY/WX    TMP DP  RH WIND       PRES   REMARKS
SUPERIOR ARPT  FLURRIES  21  16  81 W3        30.05S
ASHLAND        CLOUDY    17  12  80 SW8       30.04R WCI   7
HAYWARD        LGT SNOW  15  12  88 SW5       30.03S FOG     WCI   8
SIREN          FLURRIES  15  12  85 W7        30.06S WCI   6
CUMBERLAND     CLOUDY    12   9  85 CALM      30.05S
RICE LAKE      CLOUDY    13  10  85 S5        30.07S WCI   5
CHETEK         CLOUDY    12   9  88 S3        30.07S
LADYSMITH      PTCLDY    10   8  90 CALM      30.06R
EAU CLAIRE     NOT AVBL
MENOMONIE      CLOUDY    13   9  83 CALM      30.10R
NEW RICHMOND   PTCLDY    10   7  88 S6        30.08F WCI   0
OSCEOLA        MOCLDY     9   9 100 S5        30.11S WCI   1
$$

WIZ003>005-009-010-017-018-281200-
NORTH CENTRAL WISCONSIN

CITY           SKY/WX    TMP DP  RH WIND       PRES   REMARKS
MANITOWISH WTR CLOUDY    11   9  90 W5        29.97S WCI   3
ARBOR VITAE    CLOUDY    14  11  87 W3        29.98R
WOODRUFF       CLOUDY    14  11  87 W3        29.98R
RHINELANDER    CLOUDY     9   6  88 W6        29.99R WCI  -1
EAGLE RIVER    CLOUDY    11   7  83 W7        29.96S WCI   0
LAND O LAKES   CLOUDY    13  10  88 W7        29.96S WCI   2
PHILLIPS       CLOUDY     9   7  89 SW5       30.00S WCI   1
TOMAHAWK       CLOUDY     8   5  90 CALM      30.01S
MEDFORD        FLURRIES   8   6  89 W6        30.03R WCI  -2
MERRILL        MOCLDY     6   4  89 W5        30.03R WCI  -3
$$

WIZ029-030-035-036-043>047-281200-
CENTRAL WISCONSIN

CITY           SKY/WX    TMP DP  RH WIND       PRES   REMARKS
WAUSAU         PTCLDY    10   6  84 NW5       30.04R WCI   2
MOSINEE        CLEAR     10   9  92 W7        30.06R WCI   0
MARSHFIELD     PTCLDY     9   5  84 W8        30.06R WCI  -3
STEVENS POINT  CLEAR     13   8  83 W5        30.07S WCI   5
WAUPACA        CLEAR     19  14  79 W6        30.08R WCI  11
WAUTOMA        NOT AVBL
WISC RAPIDS    CLEAR     14   8  77 W5        30.09S WCI   6
CAMP DOUGLAS   NOT AVBL
$$

WIZ011>013-019>022-031-037>040-048>050-281200-
NORTHEAST WISCONSIN

CITY           SKY/WX    TMP DP  RH WIND       PRES   REMARKS
ANTIGO         CLEAR      6   4  91 W6        30.01R WCI  -5
SHAWANO        CLEAR     19  14  80 W8        30.06S WCI   9
OCONTO         CLEAR     19  15  86 W8        30.05S WCI   9
STURGEON BAY   CLEAR     21  12  68 W9        30.05S WCI  11
GREEN BAY      CLEAR     22  17  81 W7        30.07R WCI  13
MANITOWOC      NOT AVBL
APPLETON       NOT AVBL
CLINTONVILLE   CLEAR     18  12  79 W9        30.06S WCI   6
OSHKOSH        CLEAR     20  14  77 W7        30.08S WCI  11
$$

WIZ032>034-041-042-053>061-281200-
SOUTHWEST WISCONSIN

CITY           SKY/WX    TMP DP  RH WIND       PRES   REMARKS
LA CROSSE      CLEAR     13   8  81 S7        30.14S WCI   3
SPARTA         CLEAR     14  10  85 CALM      30.12S
VIROQUA        CLEAR     14  14 100 SW7       30.08F WCI   3
BOSCOBEL       CLEAR     16  12  84 SW6       30.16R WCI   7
PRAIRIE DU CHI CLEAR     17  12  79 W3        30.17R
PLATTEVILLE    CLEAR     16  14  90 CALM      30.14S
$$

WIZ056-057-062-063-064-067-068-281200-
SOUTH CENTRAL WISCONSIN

CITY           SKY/WX    TMP DP  RH WIND       PRES   REMARKS
REEDSBURG      CLEAR     16  11  79 SW3       30.11S
BARABOO/DELLS  CLEAR     16  11  80 SW5       30.10S WCI   9
LONE ROCK      NOT AVBL
MINERAL POINT  CLEAR     19  14  79 W3        30.11S
MADISON        CLEAR     19  13  77 CALM      30.12R
MIDDLETON      CLEAR     19  14  79 W3        30.12S
WATERTOWN      CLEAR     21  17  86 W5        30.11S WCI  14
MONROE         CLEAR     19  16  86 W6        30.11S WCI  11
JANESVILLE     CLEAR     21  18  86 W5        30.13R WCI  15
$$

WIZ051-052-058>065-066-070>072-281200-
SOUTHEAST WISCONSIN

CITY           SKY/WX    TMP DP  RH WIND       PRES   REMARKS
MILWAUKEE      PTCLDY    25  18  74 W8        30.11R WCI  16
WAUKESHA       CLEAR     21  19  93 W9        30.10S WCI  11
MILWAUKEE/TIMM CLEAR     23  19  86 W12       30.10R WCI  12
RACINE         CLEAR     25  19  78 W6        30.13R WCI  18
BURLINGTON     CLEAR     21  18  88 W5        30.12R WCI  15
KENOSHA        CLEAR     24  20  84 W8        30.11R WCI  15
FOND DU LAC    CLEAR     21  15  78 SW8       30.09S WCI  11
SHEBOYGAN      CLEAR     22  17  81 W10       30.08R WCI  11
WEST BEND      CLEAR     23  18  80 W10       30.08S WCI  12
JUNEAU         FAIR      20  17  86 W7        30.11S WCI  11
$$

LSZ147-162-281200-
LAKE SUPERIOR

STATION/POSITION TIME  TEMP    WIND        PRES    WAVE
                       AIR SEA DIR/SP/G            HT/PER
                 (UTC) (F)     (DEG/KT/KT) (MB)    (FT/S)
DEVILS ISLAND    1000   21     290/ 15/ 19 1017.7R
PORT WING        1000   23     280/ 14/ 18 1017.3
SAXON HARBOR     1000   19     210/  6/ 11 1016.9S
$$

LMZ867-665-643>646-281200-
LAKE MICHIGAN

STATION/POSITION TIME  TEMP    WIND        PRES    WAVE
                       AIR SEA DIR/SP/G            HT/PER
                 (UTC) (F)     (DEG/KT/KT) (MB)    (FT/S)
CHAMBERS ISLAND  1000   22     220/  7/ 11 1016.9F
NORTHPORT PIER   1002   24     270/  3/ 12 1016.6F
SISTER BAY       1013          290/ 12/ 15   N/A
ALGOMA LAKESHORE 1015          290/  8/ 12   N/A
KEWAUNEE LAKESHO 1000   23     280/  8/ 12 1017.0F
SHEBOYGAN LAKESH 1000   24 37  280/ 10/ 12 1019.5F
PORT WASHINGTON  1000   25     280/  3/  8 1019.6S
MILWAUKEE LAKESH 1000   26     280/  9/ 12   N/A
KENOSHA   LAKESH 1000   27     290/  9/ 13 1019.3R
$$

TC  - TEMPERATURE IN CELSIUS
VSB - VISIBILITY IN STATUTE MILES
WCI - WIND CHILL INDEX
HX  - HEAT INDEX



USA.gov is the U.S. government's official web portal to all federal, state and local government web resources and services.